Wind_Speed
26 28 32 38 42 46 51 55 61 68 72 74 74 74 76 76 72 66 65 68 68 62 55 52 51 51 52 54 58 59 57 57 53 50 51 51 48 45 41 38 35 30 28 29
27 30 33 38 43 48 52 56 63 70 74 74 73 74 75 73 69 65 66 68 64 56 52 50 51 52 54 56 59 58 58 55 51 53 53 53 50 46 42 38 34 29 26 25
31 34 37 41 45 49 53 58 66 72 74 75 72 73 73 71 67 64 67 66 58 52 50 50 52 53 55 58 60 60 58 53 54 56 56 55 52 49 47 43 37 32 27 23
35 37 39 43 46 51 55 61 67 72 76 73 71 72 71 67 63 64 67 61 54 50 50 52 54 54 56 61 61 61 56 53 57 57 56 56 53 51 51 50 42 33 28 23
37 39 41 44 48 53 57 62 68 73 75 72 71 71 69 65 63 64 63 57 52 51 52 54 55 55 57 62 63 61 55 55 58 57 55 55 54 54 56 54 44 34 26 22
37 40 44 46 49 53 59 64 69 73 73 70 71 70 67 64 63 64 59 53 51 52 54 55 55 56 59 63 63 60 54 57 59 58 57 58 58 60 61 55 41 30 23 20
38 41 43 46 50 54 59 66 70 71 70 69 69 68 65 63 63 62 55 51 52 53 55 56 55 56 59 62 62 58 56 58 60 59 60 61 62 66 64 50 34 26 21 17
40 44 46 47 51 54 59 65 68 69 68 67 68 67 63 62 62 59 52 50 51 53 55 56 55 56 59 61 61 58 57 57 59 60 62 63 65 68 63 43 29 22 18 15
40 42 44 46 50 54 59 63 66 67 66 66 67 66 62 61 61 56 50 49 51 53 55 56 55 56 59 60 59 58 56 56 58 61 63 66 68 70 62 43 30 21 17 14
39 41 43 46 50 54 57 61 65 66 65 65 67 64 61 60 59 53 48 48 50 52 54 54 54 56 59 59 58 57 56 56 58 61 62 66 70 72 65 46 33 23 16 14
38 40 42 44 50 54 55 60 65 65 64 65 66 63 60 59 57 51 47 47 49 51 52 53 53 55 57 58 57 57 56 56 58 60 62 65 69 72 69 53 39 28 18 13
38 39 41 45 50 53 55 60 64 65 63 64 64 61 59 58 55 49 45 46 48 51 51 51 52 54 57 57 58 57 56 56 59 60 60 62 66 70 70 62 45 33 23 15
37 38 41 46 50 53 56 59 63 63 62 63 63 60 58 57 53 48 44 44 47 50 51 50 51 54 56 56 57 58 56 57 60 61 60 61 65 68 70 68 57 41 29 20
37 39 42 46 50 54 56 59 62 62 61 61 61 59 58 55 51 47 44 43 45 49 51 50 50 53 55 55 55 56 56 57 59 61 62 62 64 67 70 70 66 54 39 28
39 40 43 46 51 53 55 59 61 61 59 59 60 58 57 54 52 46 42 41 43 48 51 50 49 51 53 54 54 54 55 56 58 61 62 61 62 64 66 68 69 64 54 40
38 41 44 47 50 52 54 58 60 59 58 58 58 58 56 54 51 46 41 39 41 45 49 51 49 49 50 53 54 53 53 55 57 59 60 60 61 62 63 65 66 67 64 57
36 40 43 45 48 50 53 57 58 57 56 57 57 56 54 53 50 47 43 39 39 42 47 50 48 46 48 51 52 52 53 53 55 57 58 59 60 60 61 62 63 64 64 62
37 39 42 44 46 49 52 54 55 55 54 54 55 55 53 52 51 48 44 40 39 41 45 48 47 45 46 48 49 51 52 52 53 54 56 56 58 59 60 60 60 60 60 61
38 40 42 42 44 48 51 53 54 53 52 53 54 54 51 51 50 47 43 40 39 40 44 46 45 45 45 45 47 49 50 51 51 52 54 54 55 56 58 59 59 58 58 57
37 39 41 42 44 48 50 52 52 51 50 52 53 52 50 50 49 46 43 39 37 37 40 43 43 43 43 43 45 47 47 48 50 51 51 52 54 54 55 56 57 58 57 56
36 38 40 42 45 48 50 52 51 49 49 50 51 50 49 49 47 45 42 39 36 36 37 39 41 41 41 41 42 44 45 46 47 48 49 50 51 52 52 53 54 55 56 57
36 37 39 42 45 47 50 51 50 48 48 48 49 49 48 47 46 44 43 39 35 34 35 37 39 39 40 40 40 40 42 44 45 46 48 49 50 50 49 50 51 52 53 54
37 37 39 41 43 46 49 49 49 47 46 47 47 47 46 45 44 44 42 39 34 31 32 34 36 37 38 38 38 38 38 39 42 44 45 47 48 49 49 48 48 48 48 49
37 38 38 39 42 46 48 48 47 46 45 45 45 46 46 45 44 44 42 38 33 30 29 31 33 34 36 37 37 36 36 36 38 39 41 43 45 46 47 47 47 46 45 45
36 37 36 38 42 47 48 47 46 44 43 43 44 44 45 44 41 41 40 38 34 30 27 28 30 32 34 35 36 36 35 34 35 36 38 39 41 43 45 46 46 46 45 44
37 37 38 40 45 48 48 47 45 43 41 41 42 43 43 42 39 39 39 38 34 30 27 26 28 29 31 33 34 35 35 35 34 34 35 36 38 40 42 43 43 44 44 44
40 39 41 44 47 50 49 47 45 42 41 40 40 41 42 41 39 37 37 36 34 30 27 25 25 26 28 29 31 32 33 34 35 35 34 34 35 36 38 39 39 39 40 42
Wind_Direction
335 334 332 331 333 336 338 338 339 340 341 341 342 343 343 342 342 341 340 338 339 341 345 346 346 346 344 342 341 342 341 340 341 343 343 341 338 333 326 320 314 303 289 276
334 332 332 333 335 338 339 339 340 340 341 341 342 343 343 342 343 342 340 340 342 345 347 348 347 345 344 343 343 344 344 344 345 345 346 345 343 341 336 328 321 313 300 286
335 335 337 338 338 338 340 340 340 341 341 342 343 344 343 343 344 341 341 343 345 348 348 347 346 345 346 346 345 346 346 347 347 346 346 345 344 342 342 336 325 315 305 291
335 336 341 338 337 338 341 341 340 341 341 343 344 343 343 344 344 342 343 345 348 349 348 348 347 347 347 348 347 347 347 348 348 347 347 346 345 343 341 339 331 318 304 291
335 337 338 338 340 340 342 341 341 341 342 343 344 343 344 345 344 343 345 347 350 350 350 349 348 348 348 348 348 348 349 349 350 350 349 348 346 343 339 336 329 319 307 291
334 334 337 339 339 340 341 341 342 342 343 343 344 345 346 347 345 345 347 350 351 350 350 351 350 349 349 349 350 350 350 350 351 350 350 350 348 344 341 336 326 315 306 290
334 334 336 337 338 339 340 341 341 342 343 344 345 345 347 348 346 346 350 352 351 351 351 352 351 351 350 351 352 353 352 351 351 352 352 351 349 347 344 339 328 314 304 291
337 337 336 337 336 337 338 340 341 342 343 345 347 346 348 349 347 348 353 353 352 352 352 352 352 353 352 353 354 355 354 353 354 356 356 354 353 353 351 347 337 320 306 294
335 333 333 335 335 337 338 340 341 342 343 347 348 348 350 349 348 350 354 354 353 354 353 354 354 355 355 356 357 357 357 357 358 359 359 359 359 359 360 357 349 332 310 296
332 331 333 335 336 338 339 340 341 342 345 348 348 349 351 351 350 353 356 355 355 356 356 355 356 358 358 360 360 1 1 1 0 0 1 2 4 4 5 3 359 347 321 297
329 328 331 334 335 337 338 340 342 343 346 348 349 350 352 352 353 355 356 357 358 358 358 358 359 0 1 3 3 4 4 4 4 3 4 6 7 8 9 8 2 357 344 313
324 325 328 332 334 335 337 338 342 344 346 348 349 352 353 353 355 357 358 358 359 360 360 360 1 2 3 6 6 8 7 8 8 8 9 11 12 13 13 14 10 6 360 346
320 322 325 330 333 334 337 338 341 344 346 348 349 353 354 355 356 358 359 359 1 2 2 2 3 4 6 8 8 9 9 11 13 12 13 15 17 17 18 19 19 17 14 7
317 320 323 328 332 334 337 339 341 343 346 348 350 353 355 356 357 359 358 359 2 5 5 4 5 7 8 8 9 10 11 14 15 15 18 20 20 20 22 24 25 26 25 23
316 320 323 327 330 333 336 339 341 343 346 347 350 354 355 356 358 359 357 357 3 6 7 7 8 9 9 11 11 11 12 16 18 18 20 22 22 23 25 27 29 31 32 32
316 320 323 324 328 331 335 338 340 343 346 347 350 354 355 357 359 358 356 356 1 5 7 8 10 10 10 13 14 12 13 16 19 21 21 22 24 26 27 29 31 33 36 37
315 319 322 323 327 331 335 337 339 342 345 347 350 353 354 357 357 357 357 356 357 2 6 8 11 10 10 12 14 14 15 17 20 22 22 23 25 27 29 30 32 34 35 38
315 319 321 324 329 332 334 336 339 342 344 345 349 352 354 356 356 356 356 355 355 359 5 7 10 10 11 12 12 15 16 18 21 23 23 23 25 27 29 31 32 34 35 36
313 317 321 324 329 331 333 336 339 341 343 344 348 351 353 355 356 355 354 355 356 1 4 6 8 10 13 12 13 16 18 19 21 23 25 25 26 27 30 32 33 34 35 36
313 316 318 322 326 329 331 334 337 339 341 343 346 349 352 354 355 354 354 354 355 359 4 4 6 10 13 13 15 18 19 19 21 23 24 25 27 28 30 32 34 34 35 36
310 314 316 319 323 326 329 333 336 338 339 341 344 347 350 352 353 353 352 353 355 358 3 5 6 10 12 13 15 18 20 20 21 23 24 25 27 27 29 32 34 35 36 37
309 312 314 318 321 325 328 332 334 335 337 340 343 345 348 350 351 352 351 352 353 356 1 4 6 9 12 13 15 17 19 21 23 24 24 25 27 27 27 30 33 35 36 37
308 310 313 318 322 325 328 330 332 333 335 338 341 343 346 348 349 350 350 351 351 354 358 1 4 9 12 14 15 16 17 19 21 23 24 25 25 27 26 27 30 33 35 37
307 309 313 318 321 324 326 328 329 331 333 336 338 341 343 346 347 350 351 349 349 352 355 356 360 7 11 13 15 15 15 17 18 20 21 22 23 25 24 24 26 28 30 33
304 309 314 317 320 323 323 324 326 328 331 333 336 339 341 343 345 348 350 348 348 350 351 353 356 3 9 11 13 14 14 14 15 17 18 19 21 24 24 23 24 26 27 29
299 306 311 316 319 321 322 322 323 325 328 330 334 337 339 341 342 345 348 348 347 348 350 351 354 359 5 8 10 13 15 15 15 14 14 16 18 22 24 24 24 26 27 28
295 300 306 312 316 318 320 318 319 321 325 328 331 334 337 339 340 342 345 347 346 346 347 348 350 353 358 3 6 9 14 16 17 17 15 15 16 19 23 23 24 25 26 27
Height
5843 5838 5832 5826 5819 5811 5801 5791 5779 5766 5753 5738 5721 5707 5691 5675 5659 5643 5628 5614 5598 5583 5570 5558 5546 5535 5523 5511 5498 5484 5470 5457 5444 5432 5420 5407 5396 5385 5375 5367 5361 5356 5354 5353
5840 5834 5829 5822 5814 5805 5796 5784 5772 5759 5746 5730 5715 5700 5684 5668 5652 5637 5622 5607 5592 5578 5566 5553 5541 5530 5518 5505 5491 5477 5463 5449 5437 5425 5412 5400 5388 5377 5367 5359 5352 5346 5343 5341
5835 5829 5823 5815 5807 5799 5790 5778 5766 5752 5739 5723 5709 5693 5679 5662 5646 5631 5616 5601 5587 5574 5561 5548 5536 5524 5512 5498 5484 5470 5456 5443 5431 5418 5406 5394 5382 5371 5360 5351 5343 5336 5332 5330
5829 5823 5817 5813 5802 5792 5783 5772 5758 5745 5731 5715 5701 5687 5672 5656 5640 5625 5610 5595 5581 5569 5557 5544 5532 5519 5506 5493 5478 5464 5449 5437 5425 5412 5399 5387 5375 5363 5353 5342 5333 5326 5321 5319
5822 5816 5812 5805 5795 5785 5776 5766 5753 5739 5724 5709 5695 5680 5666 5649 5633 5620 5604 5590 5578 5565 5553 5540 5527 5515 5502 5488 5473 5459 5444 5433 5420 5407 5394 5380 5368 5355 5343 5331 5321 5313 5309 5307
5818 5811 5805 5799 5789 5779 5770 5758 5746 5732 5719 5705 5689 5676 5660 5643 5628 5614 5598 5586 5575 5562 5549 5537 5523 5510 5497 5484 5469 5454 5440 5428 5414 5401 5387 5374 5359 5346 5331 5316 5305 5300 5297 5296
5813 5806 5799 5791 5782 5773 5764 5755 5740 5727 5713 5698 5684 5670 5653 5637 5622 5608 5594 5581 5569 5558 5546 5534 5521 5507 5494 5480 5465 5450 5437 5423 5410 5396 5382 5368 5352 5335 5317 5301 5291 5287 5285 5285
5807 5799 5794 5785 5777 5769 5760 5746 5734 5721 5706 5692 5678 5662 5647 5632 5618 5603 5590 5579 5567 5555 5544 5532 5519 5505 5492 5477 5462 5448 5434 5421 5407 5393 5379 5363 5346 5326 5306 5289 5282 5278 5276 5276
5805 5799 5789 5781 5774 5764 5753 5741 5728 5715 5700 5687 5673 5658 5642 5628 5614 5600 5588 5577 5565 5553 5541 5529 5517 5504 5490 5476 5461 5447 5433 5419 5405 5390 5375 5359 5341 5321 5301 5286 5277 5272 5269 5269
5799 5792 5784 5776 5767 5757 5747 5736 5723 5709 5696 5683 5669 5654 5638 5624 5610 5597 5586 5575 5564 5552 5539 5528 5516 5503 5489 5475 5461 5447 5433 5419 5404 5389 5374 5356 5338 5319 5299 5285 5276 5269 5265 5264
5794 5787 5779 5771 5762 5753 5742 5731 5718 5705 5693 5679 5666 5650 5635 5622 5609 5595 5584 5574 5563 5551 5538 5527 5515 5503 5489 5475 5462 5448 5433 5420 5405 5390 5374 5357 5338 5320 5301 5284 5273 5267 5263 5260
5788 5782 5774 5766 5757 5747 5737 5726 5713 5701 5689 5675 5661 5646 5632 5620 5607 5594 5584 5574 5563 5551 5539 5527 5516 5503 5489 5476 5462 5449 5436 5422 5408 5393 5379 5363 5345 5325 5305 5288 5274 5265 5260 5257
5782 5775 5768 5760 5751 5741 5732 5721 5709 5696 5685 5672 5657 5643 5630 5619 5606 5593 5584 5574 5563 5551 5539 5527 5516 5504 5490 5477 5464 5452 5439 5426 5412 5398 5383 5366 5350 5333 5315 5296 5279 5268 5261 5257
5776 5769 5762 5754 5746 5736 5727 5716 5704 5692 5680 5668 5654 5640 5628 5616 5603 5592 5583 5573 5563 5551 5539 5527 5516 5504 5492 5480 5468 5456 5443 5429 5416 5401 5385 5369 5355 5339 5323 5307 5290 5276 5266 5261
5770 5764 5756 5748 5740 5731 5722 5712 5700 5688 5676 5664 5651 5639 5627 5614 5602 5591 5582 5573 5563 5551 5540 5528 5517 5507 5496 5483 5471 5460 5448 5434 5419 5405 5390 5376 5363 5349 5334 5319 5304 5289 5277 5268
5763 5757 5750 5743 5735 5727 5718 5707 5695 5683 5672 5661 5649 5637 5624 5613 5602 5591 5583 5573 5563 5553 5542 5531 5519 5509 5499 5487 5475 5464 5452 5438 5424 5411 5399 5386 5373 5360 5346 5332 5318 5305 5292 5281
5756 5751 5744 5737 5730 5722 5713 5702 5690 5680 5669 5658 5646 5634 5622 5611 5601 5591 5582 5574 5564 5554 5544 5532 5521 5511 5502 5490 5479 5468 5456 5444 5431 5418 5407 5395 5382 5369 5356 5344 5331 5319 5308 5296
5751 5745 5738 5731 5724 5717 5707 5696 5686 5676 5666 5655 5644 5632 5621 5609 5598 5588 5579 5571 5564 5555 5545 5535 5523 5514 5503 5493 5483 5472 5460 5449 5437 5425 5415 5404 5391 5379 5366 5354 5343 5332 5322 5312
5744 5739 5733 5726 5719 5711 5701 5691 5681 5672 5662 5652 5641 5631 5619 5608 5598 5588 5579 5571 5563 5554 5545 5537 5527 5516 5506 5497 5487 5476 5465 5455 5444 5433 5422 5412 5401 5389 5377 5366 5355 5344 5334 5325
5737 5732 5726 5720 5713 5705 5695 5686 5676 5667 5658 5648 5638 5628 5618 5607 5598 5589 5580 5572 5565 5556 5547 5539 5529 5519 5510 5501 5491 5481 5471 5461 5451 5440 5430 5420 5410 5400 5388 5377 5367 5356 5347 5337
5729 5724 5719 5713 5707 5698 5690 5681 5671 5662 5653 5644 5635 5625 5615 5605 5596 5587 5579 5572 5564 5556 5548 5540 5531 5521 5513 5504 5495 5486 5476 5467 5458 5448 5439 5429 5419 5409 5399 5389 5379 5369 5359 5350
5721 5716 5711 5706 5700 5692 5684 5676 5666 5657 5648 5640 5632 5622 5611 5602 5593 5584 5577 5570 5562 5555 5549 5541 5533 5524 5515 5507 5498 5490 5482 5473 5464 5455 5446 5437 5427 5418 5409 5399 5390 5380 5371 5362
5714 5709 5704 5698 5693 5686 5678 5669 5660 5652 5644 5636 5628 5618 5609 5601 5593 5585 5577 5569 5561 5555 5549 5543 5535 5526 5518 5510 5501 5494 5486 5478 5470 5461 5453 5444 5435 5426 5417 5409 5399 5390 5382 5373
5708 5703 5697 5691 5685 5678 5669 5661 5653 5646 5638 5631 5623 5614 5606 5599 5591 5583 5575 5567 5561 5553 5548 5543 5536 5528 5520 5512 5505 5497 5490 5482 5474 5467 5459 5450 5442 5433 5425 5417 5408 5399 5391 5383
5700 5695 5689 5683 5677 5669 5661 5654 5646 5639 5632 5625 5618 5610 5603 5595 5587 5579 5572 5566 5559 5552 5547 5542 5536 5529 5521 5514 5508 5500 5493 5486 5478 5471 5464 5456 5448 5439 5431 5423 5415 5407 5399 5392
5690 5686 5681 5675 5669 5661 5654 5648 5641 5633 5626 5620 5613 5606 5599 5591 5583 5577 5570 5563 5556 5550 5545 5541 5536 5529 5522 5516 5510 5503 5496 5489 5481 5475 5468 5461 5453 5445 5437 5430 5422 5414 5407 5400
5681 5677 5673 5667 5660 5653 5647 5641 5634 5627 5621 5614 5608 5601 5594 5587 5581 5574 5567 5561 5554 5549 5543 5538 5534 5529 5523 5517 5511 5506 5499 5492 5485 5478 5471 5464 5457 5450 5443 5436 5429 5421 5414 5407